Regional Weather Roundup
Issued by NWS State College, PA

Home | Current Version | Previous Version | Text Only | Print | Product List | Glossary On
Versions: 1 2 3 4 5 6 7 8 9 10 11 12 13 14 15 16 17 18 19 20 21 22 23 24 25 26 27 28 29 30 31 32 33 34 35 36 37 38 39 40 41 42 43 44 45 46 47 48 49 50
745
ASUS41 KCTP 221503
RWRCTP

REGIONAL WEATHER ROUNDUP
NATIONAL WEATHER SERVICE STATE COLLEGE PA
1000 AM EST SUN JAN 22 2017

Note: "fair" indicates few or no clouds below 12,000 feet with no
significant weather and/or obstructions to visibility.

* = STATION THAT DOES NOT REPORT PRECIPITATION /E.G. RAIN...SNOW...ETC/
    THUNDER OR FOG.

PAZ002>004-007>009-013>016-020>023-029>032-221600-
WESTERN PENNSYLVANIA

CITY           SKY/WX    TMP DP  RH WIND       PRES   REMARKS
ERIE           CLOUDY    51  47  86 CALM      29.67R
MEADVILLE      CLOUDY    51  47  86 E3        29.68R
FRANKLIN*        N/A     48  46  93 E6        29.69S
NEW CASTLE     CLOUDY    50  50 100 CALM      29.68S FOG
BEAVER COUNTY  NOT AVBL
BUTLER*        CLOUDY    50  46  87 N6        29.70S
PITTSBURGH INT CLOUDY    52  51  97 CALM      29.66S
PITTSBURGH     CLOUDY    54  46  74 SE3       29.65S
INDIANA*       SUNNY     48  45  87 E6        29.71S
LATROBE        CLOUDY    46  46 100 VRB3      29.68R FOG
WASHINGTON CO* CLOUDY    48  48 100 CALM      29.65F
$$

PAZ004>006-010>012-017>019-024>028-033>037-041-042-045-046-049>053-221600-
CENTRAL PENNSYLVANIA

CITY           SKY/WX    TMP DP  RH WIND       PRES   REMARKS
BRADFORD       PTSUNNY   47  47 100 SE3       29.69S
DUBOIS         CLOUDY    48  44  86 E6        29.68R
CLEARFIELD     FOG       40  40 100 CALM      29.71S VSB<1/4
JOHNSTOWN      PTSUNNY   54  46  74 NE6       29.67S
ALTOONA        FOG       42  42 100 CALM      29.72R VSB 1/4
STATE COLLEGE  FOG       39  39 100 CALM      29.72R VSB 1/16
WILLIAMSPORT   CLOUDY    42  41  96 CALM      29.75R FOG
SELINSGROVE    CLOUDY    42  41  96 N5        29.75R
FT INDIANTOWN  CLOUDY    42  42 100 E5        29.73S FOG
CAPITAL CITY   FOG       44  42  93 SE3       29.74R VSB 1
HARRISBURG     FOG       43  43 100 CALM      29.74R VSB 1/4
YORK           FOG       43  43 100 N3        29.72S VSB 1/2
$$

PAZ038>040-043-044-047-048-054-055-060>062-067>071-221600-
EASTERN PENNSYLVANIA

CITY           SKY/WX    TMP DP  RH WIND       PRES   REMARKS
SCRANTON       FOG       41  41 100 CALM      29.72R VSB<1/4
MOUNT POCONO   CLOUDY    47  46  97 E5        29.71R
ALLENTOWN      FOG       42  41  96 CALM      29.75R VSB 1/4
QUAKERTOWN*    CLOUDY    43  43 100 CALM      29.75R VSB 1/4
READING        FOG       41  41 100 CALM      29.74R VSB 1/8
LANCASTER      FOG       43  43 100 CALM      29.74R VSB 3/4
COATESVILLE    CLOUDY    43  43 100 N6        29.74R FOG
POTTSTOWN      FOG       43  43 100 N3        29.76R VSB 1/2
BLUE BELL      CLOUDY    43  43 100 CALM      29.73R
DOYLESTOWN     CLOUDY    45  44  97 N5        29.74R FOG
WILLOW GROVE   NOT AVBL
NORTH PHILA    CLOUDY    47  45  93 N7        29.75R
PHILADELPHIA   CLOUDY    47  45  93 VRB6      29.74R FOG
$$




USA.gov is the U.S. government's official web portal to all federal, state and local government web resources and services.